Location: Düngen
(52.0952°N, 10.0219°E)
Time: 19:34:28
(UTC+00:00)

COBE Rocket - Pass Details

Date: 11 March 2026
Orbit: 675 x 772 km, 97.1° (Epoch: 20 April)

Event Time Altitude Azimuth Distance (km) Brightness Sun altitude
Rises 18:41:31 0° 15° (NNE) 3,045 7.1 -13.7°
Reaches altitude 10° 18:43:48 10° 19° (NNE) 2,123 6.2 -14.0°
Maximum altitude 18:48:22 59° 99° (E) 786 3.7 -14.7°
Drops below altitude 10° 18:52:56 10° 180° (S) 2,117 6.1 -15.4°
Sets 18:55:13 0° 184° (S) 3,036 7.0 -15.7°
